sat.trackr.live / text

‹ back to catalog

STARLINK-30716

NORAD 57936 · 2023-148B

PAYLOAD ACTIVE UNKNOWN

§ Identity

Operator
Country
US
Launch date
2023-09-25
Launch site
AFWTR
Launch vehicle
Mass (kg)
RCS (m²)

Purposes: comms

External: N2YO · Heavens-Above · Gunter

§ Orbital elements

Epoch: 2026-05-25T01:43:42.267072Z

Period
94.11 min
Inclination
53.1617°
Eccentricity
0.0001377
Mean motion
15.30193134 rev/d
Perigee alt
474.3 km
Apogee alt
476.2 km
Semi-major
6,853.4 km
B*
6.6147e-5
RAAN
29.6388°
Arg perigee
97.2649°
Mean anomaly
262.8509°
Rev number
15,011

§ Raw data

STARLINK-307161 57936U 23148B   26145.07201698  .00001600  00000+0  66147-4 0  99932 57936  53.1617  29.6388 0001377  97.2649 262.8509 15.30193134150116

JSON: /api/v1/satellites/57936 · /tle

For live sub-satellite position, see the globe view (requires WebGL).

§ Visibility from observer

Set your observer location to see the next 7 days of passes ≥ 10°. The values pass through the URL so the page stays shareable.

No JS? Fill the form by hand. The geolocation button needs JavaScript.